TimeEDT,TemperatureF,Dew PointF,Humidity,Sea Level PressureIn,VisibilityMPH,Wind Direction,Wind SpeedMPH,Gust SpeedMPH,PrecipitationIn,Events,Conditions,WindDirDegrees,DateUTC
12:15 AM,68.0,51.8,56,30.21,10.0,Calm,Calm,-,N/A,,Overcast,0,2013-04-17 04:15:00
12:35 AM,64.4,53.6,68,30.21,10.0,Calm,Calm,-,N/A,,Overcast,0,2013-04-17 04:35:00
12:55 AM,66.2,53.6,64,30.21,10.0,Calm,Calm,-,N/A,,Overcast,0,2013-04-17 04:55:00
1:15 AM,66.2,51.8,60,30.20,10.0,Calm,Calm,-,N/A,,Scattered Clouds,0,2013-04-17 05:15:00
1:35 AM,64.4,51.8,64,30.20,10.0,SE,3.5,-,N/A,,Clear,130,2013-04-17 05:35:00
1:55 AM,64.4,51.8,64,30.20,10.0,ESE,3.5,-,N/A,,Clear,120,2013-04-17 05:55:00
2:15 AM,62.6,51.8,68,30.20,10.0,Calm,Calm,-,N/A,,Clear,0,2013-04-17 06:15:00
2:35 AM,62.6,57.2,82,30.20,10.0,Calm,Calm,-,N/A,,Clear,0,2013-04-17 06:35:00
2:55 AM,60.8,57.2,88,30.21,10.0,Calm,Calm,-,N/A,,Scattered Clouds,0,2013-04-17 06:55:00
3:15 AM,62.6,57.2,82,30.21,10.0,Calm,Calm,-,N/A,,Overcast,0,2013-04-17 07:15:00
3:35 AM,66.2,51.8,60,30.21,10.0,South,3.5,-,N/A,,Overcast,180,2013-04-17 07:35:00
3:55 AM,66.2,51.8,60,30.22,10.0,SSW,3.5,-,N/A,,Overcast,200,2013-04-17 07:55:00
4:15 AM,64.4,51.8,64,30.22,10.0,Calm,Calm,-,N/A,,Overcast,0,2013-04-17 08:15:00
4:35 AM,64.4,51.8,64,30.22,10.0,SSW,3.5,-,N/A,,Overcast,210,2013-04-17 08:35:00
4:55 AM,64.4,51.8,64,30.22,10.0,SW,3.5,-,N/A,,Overcast,230,2013-04-17 08:55:00
5:35 AM,64.4,51.8,64,30.22,10.0,Calm,Calm,-,N/A,,Mostly Cloudy,0,2013-04-17 09:35:00
5:55 AM,62.6,59.0,88,30.22,10.0,Calm,Calm,-,N/A,,Mostly Cloudy,0,2013-04-17 09:55:00
6:15 AM,62.6,59.0,88,30.22,10.0,Calm,Calm,-,N/A,,Mostly Cloudy,0,2013-04-17 10:15:00
6:35 AM,62.6,59.0,88,30.23,10.0,Calm,Calm,-,N/A,,Overcast,0,2013-04-17 10:35:00
6:55 AM,60.8,59.0,94,30.23,10.0,Calm,Calm,-,N/A,,Overcast,0,2013-04-17 10:55:00
7:15 AM,62.6,59.0,88,30.23,10.0,Calm,Calm,-,N/A,,Mostly Cloudy,0,2013-04-17 11:15:00
7:35 AM,60.8,59.0,94,30.24,10.0,Calm,Calm,-,N/A,,Mostly Cloudy,0,2013-04-17 11:35:00
7:55 AM,60.8,59.0,94,30.25,10.0,Calm,Calm,-,N/A,,Scattered Clouds,0,2013-04-17 11:55:00
8:15 AM,62.6,59.0,88,30.25,10.0,Calm,Calm,-,N/A,,Clear,0,2013-04-17 12:15:00
8:35 AM,66.2,59.0,78,30.25,10.0,Calm,Calm,-,N/A,,Clear,0,2013-04-17 12:35:00
8:55 AM,68.0,57.2,68,30.25,10.0,Calm,Calm,-,N/A,,Clear,0,2013-04-17 12:55:00
9:15 AM,68.0,53.6,60,30.25,10.0,Calm,Calm,-,N/A,,Clear,0,2013-04-17 13:15:00
9:35 AM,68.0,53.6,60,30.25,10.0,Calm,Calm,-,N/A,,Clear,0,2013-04-17 13:35:00
9:55 AM,69.8,50.0,49,30.24,10.0,WSW,3.5,-,N/A,,Scattered Clouds,240,2013-04-17 13:55:00
10:15 AM,71.6,50.0,46,30.24,10.0,South,3.5,-,N/A,,Scattered Clouds,190,2013-04-17 14:15:00
10:35 AM,71.6,48.2,43,30.24,10.0,SSW,3.5,-,N/A,,Clear,210,2013-04-17 14:35:00
10:55 AM,73.4,50.0,44,30.23,10.0,SSW,5.8,-,N/A,,Clear,200,2013-04-17 14:55:00
11:15 AM,73.4,50.0,44,30.22,10.0,SSW,3.5,-,N/A,,Clear,210,2013-04-17 15:15:00
11:35 AM,73.4,50.0,44,30.22,10.0,Calm,Calm,-,N/A,,Clear,0,2013-04-17 15:35:00
11:55 AM,75.2,50.0,41,30.22,10.0,West,3.5,-,N/A,,Clear,260,2013-04-17 15:55:00
12:15 PM,77.0,50.0,39,30.21,10.0,WSW,6.9,-,N/A,,Clear,240,2013-04-17 16:15:00
12:35 PM,77.0,50.0,39,30.21,10.0,Calm,Calm,-,N/A,,Clear,0,2013-04-17 16:35:00
12:55 PM,77.0,46.4,34,30.20,10.0,Calm,Calm,-,N/A,,Clear,0,2013-04-17 16:55:00
1:15 PM,78.8,50.0,36,30.20,10.0,West,4.6,-,N/A,,Clear,270,2013-04-17 17:15:00
1:35 PM,78.8,46.4,32,30.19,10.0,West,4.6,-,N/A,,Scattered Clouds,260,2013-04-17 17:35:00
1:55 PM,80.6,48.2,32,30.18,10.0,South,4.6,-,N/A,,Clear,180,2013-04-17 17:55:00
2:15 PM,78.8,46.4,32,30.17,10.0,SW,3.5,-,N/A,,Scattered Clouds,230,2013-04-17 18:15:00
2:35 PM,80.6,46.4,30,30.16,10.0,Calm,Calm,-,N/A,,Scattered Clouds,0,2013-04-17 18:35:00
2:55 PM,80.6,46.4,30,30.15,7.0,SSW,3.5,-,N/A,,Clear,200,2013-04-17 18:55:00
3:15 PM,80.6,46.4,30,30.14,10.0,West,4.6,-,N/A,,Scattered Clouds,270,2013-04-17 19:15:00
3:35 PM,80.6,44.6,28,30.13,10.0,SSW,5.8,-,N/A,,Scattered Clouds,200,2013-04-17 19:35:00
3:55 PM,80.6,44.6,28,30.13,10.0,South,3.5,-,N/A,,Scattered Clouds,170,2013-04-17 19:55:00
4:35 PM,80.6,44.6,28,30.12,10.0,SSW,4.6,-,N/A,,Scattered Clouds,200,2013-04-17 20:35:00
5:15 PM,82.4,44.6,26,30.12,10.0,South,3.5,-,N/A,,Clear,170,2013-04-17 21:15:00
5:35 PM,80.6,46.4,30,30.12,10.0,SSE,4.6,-,N/A,,Scattered Clouds,150,2013-04-17 21:35:00
5:55 PM,80.6,46.4,30,30.13,10.0,ESE,3.5,-,N/A,,Scattered Clouds,120,2013-04-17 21:55:00
6:15 PM,77.0,48.2,36,30.14,7.0,East,8.1,16.1,N/A,,Mostly Cloudy,80,2013-04-17 22:15:00
6:35 PM,69.8,50.0,49,30.15,10.0,ENE,9.2,20.7,N/A,Thunderstorm,Overcast,70,2013-04-17 22:35:00
6:55 PM,69.8,51.8,53,30.17,10.0,East,10.4,16.1,N/A,,Overcast,90,2013-04-17 22:55:00
7:15 PM,68.0,51.8,56,30.16,10.0,ENE,8.1,-,N/A,,Mostly Cloudy,60,2013-04-17 23:15:00
7:35 PM,68.0,53.6,60,30.16,10.0,NNE,3.5,-,N/A,,Mostly Cloudy,20,2013-04-17 23:35:00
7:55 PM,66.2,53.6,64,30.16,10.0,ENE,3.5,-,N/A,,Mostly Cloudy,70,2013-04-17 23:55:00
8:15 PM,66.2,57.2,73,30.16,10.0,NE,3.5,-,N/A,,Scattered Clouds,50,2013-04-18 00:15:00
8:35 PM,64.4,59.0,83,30.16,10.0,NNE,3.5,-,N/A,,Scattered Clouds,20,2013-04-18 00:35:00
8:55 PM,64.4,59.0,83,30.17,10.0,Calm,Calm,-,N/A,Thunderstorm,Mostly Cloudy,0,2013-04-18 00:55:00
9:15 PM,64.4,57.2,77,30.17,10.0,Calm,Calm,-,N/A,,Scattered Clouds,0,2013-04-18 01:15:00
9:35 PM,64.4,55.4,73,30.16,10.0,ENE,3.5,-,N/A,,Clear,70,2013-04-18 01:35:00
9:55 PM,64.4,53.6,68,30.16,10.0,Calm,Calm,-,N/A,,Clear,0,2013-04-18 01:55:00
10:15 PM,64.4,57.2,77,30.15,10.0,Calm,Calm,-,N/A,,Clear,0,2013-04-18 02:15:00
10:35 PM,64.4,59.0,83,30.15,10.0,NW,3.5,-,N/A,,Clear,320,2013-04-18 02:35:00
10:55 PM,62.6,59.0,88,30.14,10.0,WNW,3.5,-,N/A,,Clear,300,2013-04-18 02:55:00
11:15 PM,62.6,59.0,88,30.14,10.0,West,3.5,-,N/A,,Clear,280,2013-04-18 03:15:00
11:35 PM,62.6,59.0,88,30.13,10.0,WNW,3.5,-,N/A,,Clear,290,2013-04-18 03:35:00
11:55 PM,62.6,59.0,88,30.11,10.0,Calm,Calm,-,N/A,,Clear,0,2013-04-18 03:55:00